Home > Time Zones > World Clock > Weather > Greece > Ilio > Past weeks

Flag for Greece Weather past 2 weeks in Ilio, Greece

Now
82 °F

Passing clouds.


Feels Like: 81 °F
Forecast: 66 / 83 °F
Wind: 7 mph from North

Location: Elefsis Airport

Current Time: Jun 30, 2015 at 12:25:52 PM

Latest Report: Jun 30, 2015 at 11:50 AM


Visibility: N/A

Pressure: 30.01 "Hg

Humidity: 35%

Dew point: 52 °F

Location of IlioLocation

Historic Weather in Ilio — Graph

°F

Ilio temperature yesterday

Maximum temperature yesterday: 88 °F (at 1:50 PM)
Minimum temperature yesterday: 66 °F (at 12:20 AM)
Average temperature yesterday: 74 °F

Past Weeks' High & Low Weather Summary

 TemperatureHumidityPressure
High99 °F (Jun 16, 2:20 PM)94% (Jun 22, 7:50 AM)30.01 "Hg (Jun 22, 7:50 AM)
Low63 °F (Jun 20, 4:20 AM)13% (Jun 15, 1:20 PM)29.62 "Hg (Jun 18, 12:20 PM)
Average76 °F50%29.85 "Hg
* Reported Jun 15 10:20 AM — Jun 30 10:50 AM, Ilio, Weather by CustomWeather, © 2015

Note: Actual official high and low records may vary slightly from our data, if they occured in-between our weather recording intervals... More about our weather records

Advertising

Ilio weather history for previous 24 hours

 ConditionsComfort  
Time TempWeatherWind HumidityBarometerVisibility
10:50 AM
Tue, Jun 30
82 °FPassing clouds.9 mph37%30.01 "HgN/A
10:20 AM81 °FPassing clouds.9 mph42%30.01 "HgN/A
9:50 AM79 °FPassing clouds.9 mph45%30.01 "HgN/A
9:20 AM79 °FSunny.12 mph45%30.01 "Hg10 mi
8:50 AM77 °FSunny.12 mph47%30.01 "Hg10 mi
8:20 AM75 °FSunny.9 mph54%30.01 "Hg10 mi
7:50 AM73 °FSunny.9 mph57%30.01 "Hg10 mi
7:20 AM72 °FSunny.7 mph61%29.98 "Hg10 mi
6:50 AM68 °FClear.7 mph69%29.98 "Hg10 mi
6:20 AM68 °FClear.6 mph69%29.98 "Hg10 mi
5:50 AM66 °FClear.6 mph73%29.98 "Hg10 mi
5:20 AM66 °FClear.No wind73%29.98 "Hg10 mi
4:50 AM66 °FPassing clouds.No wind73%29.98 "HgN/A
4:20 AM66 °FPassing clouds.No wind78%29.98 "HgN/A
3:50 AM68 °FPassing clouds.No wind69%29.98 "HgN/A
2:50 AM68 °FPassing clouds.No wind69%30.01 "HgN/A
2:20 AM68 °FPassing clouds.No wind69%30.01 "HgN/A
1:50 AM70 °FPassing clouds.No wind64%30.01 "HgN/A
1:20 AM68 °FPassing clouds.5 mph73%30.01 "HgN/A
12:20 AM72 °FPassing clouds.No wind65%29.98 "HgN/A
11:50 PM
Mon, Jun 29
72 °FPassing clouds.No wind61%29.98 "HgN/A
11:20 PM70 °FPassing clouds.No wind73%30.01 "HgN/A
10:50 PM70 °FPassing clouds.No wind78%30.01 "HgN/A
10:20 PM72 °FPassing clouds.No wind78%29.98 "HgN/A
9:50 PM72 °FPassing clouds.No wind78%29.98 "HgN/A
9:20 PM72 °FPassing clouds.No wind78%29.98 "HgN/A
8:50 PM72 °FPassing clouds.No wind78%29.98 "HgN/A
8:20 PM73 °FPassing clouds.No wind74%29.95 "HgN/A
7:50 PM77 °FPassing clouds.No wind57%29.95 "HgN/A
7:20 PM77 °FPassing clouds.No wind54%29.95 "HgN/A
6:50 PM75 °FScattered clouds.No wind61%29.95 "HgN/A
6:20 PM73 °FScattered clouds.No wind65%29.95 "HgN/A
5:50 PM73 °FThunderstorms. Scattered clouds.7 mph69%29.98 "HgN/A
5:20 PM68 °FThunderstorms. Partly sunny.7 mph88%29.98 "Hg5 mi
4:50 PM77 °FPartly sunny.7 mph57%29.95 "HgN/A
4:20 PM73 °FThunderstorms. Partly sunny.14 mph65%29.95 "HgN/A
3:50 PM72 °FThunderstorms. Partly sunny.13 mph69%29.95 "Hg5 mi
3:20 PM82 °FPartly sunny.9 mph37%29.95 "HgN/A
2:50 PM84 °FScattered clouds.9 mph35%29.95 "HgN/A
2:20 PM86 °FScattered clouds.9 mph29%29.95 "HgN/A
1:50 PM88 °FScattered clouds.9 mph25%29.95 "HgN/A
1:20 PM86 °FScattered clouds.9 mph25%29.95 "HgN/A
12:50 PM86 °FScattered clouds.12 mph27%29.95 "HgN/A
12:20 PM82 °FPassing clouds.7 mph35%29.95 "HgN/A
Weather by CustomWeather, © 2015

See weather overviewHow to use our weather pages